User: anonymous   Login
Location: State Camp
(41.2367°N, 77.7828°W)
Time: 02:36:48
(UTC-05:00)
Language:

ADEOS Rocket - Orbit

View from above orbital plane
View from above orbital plane
View from above satellite
View from above satellite

Ground track
Ground track

The orbit data is extracted from the following two-line orbital elements,

1 24279U 96046C   17057.93182111 -.00000034 +00000-0 +35042-5 0  9992
2 24279 098.7400 015.5834 0299509 209.6007 185.4150 13.47075364009124
Epoch (UTC): 26 February 2017 22:21:49
Eccentricity: 0.0299509
inclination: 98.7400°
perigee height: 859 km
apogee height: 1306 km
right ascension of ascending node: 15.5834°
argument of perigee: 209.6007°
revolutions per day: 13.47075364
mean anomaly at epoch: 185.4150°
orbit number at epoch: 912

The dashed part of the orbit path shows where the satellite is in the earth's shadow,  

DLR